Чхороцку

Грузия     42°31′11″N   42°07′25″E
темп.,
°C
ветер,
м/с
пор.,
м/с
влажн.,
%
обл.,
%
осадки,
мм/ч
давл.,
гПа
погр.,
м
27 ноября, сб
сб2701:00+7всв22770 0.0 102020
04:00+7всв22700 0.0 101921
07:00+7всв2268100 0.0 101836
10:00+10всв236277 0.0 101870
13:00+14в1159100 0.0 101957
16:00+14св2457100 0.0 101762
19:00+12всв2365100 0.0 101860
22:00+12св3570100 0.1 101883
28 ноября, вс
вс2801:00+13всв2468100 0.1 101775
04:00+12всв0170100 0.1 101617
07:00+12св1170100 0.0 101618
10:00+13св1180100 0.1 101621
13:00+13св2487100 1.0 1016108
16:00+13св2582100 1.6 1015121
19:00+12св268343 0.3 1016105
22:00+12всв2281100 0.3 101623
29 ноября, пн
пн2901:00+12всв227869 0.0 101618
04:00+12в117998 0.1 101721
07:00+12всв2381100 0.0 101636
10:00+14всв247530 0.0 101777
13:00+20вюв245767 0.0 1016237
16:00+20всв236126 0.0 101473
19:00+16всв256581 0.0 101484
22:00+15всв24635 0.0 101266
30 ноября, вт
вт3001:00+15в256099 0.0 101085
04:00+16вюв3856100 0.0 1008164
07:00+16ю31152100 0.0 1010297
10:00+15юв4878100 0.0 1014578
13:00+14в3484100 0.0 1012262
16:00+14в3889100 1.8 1010297
19:00+13вюв4108630 0.0 1004256
22:00+12в25800 0.0 99989
1 декабря, ср
ср101:00+12зсз5680100 0.2 1000122
04:00+11з71488100 4.1 10071607
07:00+10сз41185100 14.6 10111012
10:00+9сз2788100 18.1 1012757
13:00+9юз2384100 0.9 1012379
16:00+8юз1285100 2.1 1011346
19:00+7зюз1392100 0.3 1013140
22:00+7зюз1190100 0.8 101440